Tri-Cities, TN

5:09 AM EDT on June 25, 2017 (GMT -0400)
Tri-Cities Regional Tennessee / Virginia

Weather History for KTRI - January, 2008

Change the Weather History Date:

Friday, January 18, 2008

  Actual Average Record
Temperature  
Mean Temperature 40 °F 35 °F  
Max Temperature 47 °F 45 °F 71 °F (1949)
Min Temperature 32 °F 25 °F -3 °F (1994)
Degree Days  
Heating Degree Days 25 30  
Month to date heating degree days 498 540  
Since 1 July heating degree days 1915 2269  
Cooling Degree Days 0 0  
Month to date cooling degree days 0 0  
Year to date cooling degree days 0 0  
Moisture  
Dew Point 31 °F    
Average Humidity 67    
Maximum Humidity 92    
Minimum Humidity 41    
Precipitation  
Precipitation T in 0.10 in 0.68 in (1987)
Month to date precipitation 3.05 1.92  
Year to date precipitation 3.05 1.92  
Snow  
Snow 0.00 in 0.20 in - ()
Month to date snowfall 3.7 2.7  
Since 1 July snowfall 3.8 5.4  
Snow Depth 0.00 in    
Sea Level Pressure  
Sea Level Pressure 30.08 in    
Wind  
Wind Speed 8 mph (SW)    
Max Wind Speed 17 mph    
Max Gust Speed 22 mph    
Visibility 8 miles    
Events      
T = Trace of Precipitation, MM = Missing Value Source: NWS Daily Summary

Daily Weather History Graph

Daily Weather History Graph

Search for Another Location

Airport or City:

Trip Planner

Search our weather history database for the weather conditions in past years. The results will help you decide how hot, cold, wet, or windy it might be!

Date:

Astronomy

Jan. 18, 2008 Rise Set
Actual Time 7:39 AM EST 5:40 PM EST
Civil Twilight 7:11 AM EST 6:08 PM EST
Nautical Twilight 6:40 AM EST 6:39 PM EST
Astronomical Twilight 6:09 AM EST 7:10 PM EST
Moon 1:32 PM EST (1/18) 3:56 AM EST (1/18)
Length of Visible Light 10h 56m
Length of Day
10h 00m
Waxing Gibbous, 81% of the Moon is Illuminated
Jan 18
Waxing Gibbous
Jan 22
Full
Jan 30
Last Quarter
Feb 6
New
Feb 13
First Quarter

Hourly Weather History & Observations

Time (EST) Temp. Windchill Dew Point Humidity Pressure Visibility Wind Dir Wind Speed Gust Speed Precip Events Conditions
12:35 AM 37.4 °F 32.8 °F 37.4 °F 100% 30.01 in 3.0 mi SW 5.8 mph - 0.00 in   Overcast
12:53 AM 37.9 °F 33.5 °F 36.0 °F 93% 30.04 in 3.0 mi SW 5.8 mph - 0.00 in   Overcast
1:53 AM 39.0 °F 32.8 °F 37.0 °F 93% 30.04 in 3.0 mi SW 9.2 mph - N/A   Overcast
2:36 AM 39.2 °F 33.6 °F 37.4 °F 93% 30.04 in 5.0 mi SW 8.1 mph - N/A   Overcast
2:53 AM 39.0 °F 33.4 °F 37.0 °F 93% 30.06 in 5.0 mi SW 8.1 mph - N/A   Overcast
3:40 AM 39.2 °F 34.2 °F 35.6 °F 87% 30.04 in 6.0 mi WSW 6.9 mph - N/A   Overcast
3:53 AM 39.0 °F 33.4 °F 36.0 °F 89% 30.06 in 6.0 mi WSW 8.1 mph - N/A   Overcast
4:13 AM 39.2 °F 33.0 °F 35.6 °F 87% 30.05 in 6.0 mi SW 9.2 mph - N/A   Overcast
4:53 AM 39.0 °F 32.3 °F 36.0 °F 89% 30.05 in 7.0 mi WSW 10.4 mph - N/A   Overcast
5:38 AM 39.2 °F 33.6 °F 35.6 °F 87% 30.05 in 7.0 mi SW 8.1 mph - N/A   Overcast
5:53 AM 39.0 °F 33.4 °F 36.0 °F 89% 30.07 in 7.0 mi SW 8.1 mph - N/A   Overcast
6:53 AM 37.9 °F 30.9 °F 35.1 °F 89% 30.09 in 8.0 mi SW 10.4 mph - N/A   Overcast
7:53 AM 37.9 °F 32.7 °F 35.1 °F 89% 30.10 in 8.0 mi SW 6.9 mph - N/A   Overcast
8:53 AM 39.0 °F 33.4 °F 35.1 °F 86% 30.12 in 9.0 mi SW 8.1 mph - N/A   Overcast
9:21 AM 39.2 °F 35.0 °F 35.6 °F 87% 30.10 in 9.0 mi SW 5.8 mph - N/A   Mostly Cloudy
9:53 AM 39.9 °F 32.5 °F 34.0 °F 79% 30.13 in 10.0 mi SW 12.7 mph - N/A   Mostly Cloudy
10:53 AM 42.1 °F 35.7 °F 33.1 °F 70% 30.14 in 10.0 mi WSW 11.5 mph - N/A   Mostly Cloudy
11:53 AM 44.1 °F 39.0 °F 32.0 °F 63% 30.12 in 10.0 mi SW 9.2 mph - N/A   Mostly Cloudy
12:53 PM 43.0 °F 37.2 °F 30.0 °F 60% 30.09 in 10.0 mi WSW 10.4 mph - N/A   Scattered Clouds
1:53 PM 46.0 °F 41.0 °F 27.0 °F 47% 30.06 in 10.0 mi SW 10.4 mph - N/A   Scattered Clouds
2:53 PM 46.9 °F - 27.0 °F 46% 30.06 in 10.0 mi WSW 9.2 mph - N/A   Scattered Clouds
3:53 PM 46.0 °F 40.6 °F 25.0 °F 44% 30.06 in 10.0 mi WSW 11.5 mph 17.3 mph N/A   Scattered Clouds
4:53 PM 45.0 °F 39.7 °F 23.0 °F 42% 30.06 in 10.0 mi WSW 10.4 mph - N/A   Scattered Clouds
5:53 PM 39.0 °F 34.8 °F 23.0 °F 53% 30.08 in 10.0 mi SW 5.8 mph - N/A   Scattered Clouds
6:53 PM 36.0 °F 32.1 °F 23.0 °F 59% 30.08 in 10.0 mi SW 4.6 mph - N/A   Clear
7:53 PM 34.0 °F 28.8 °F 23.0 °F 64% 30.11 in 10.0 mi SW 5.8 mph - N/A   Clear
8:53 PM 34.0 °F 28.8 °F 24.1 °F 67% 30.13 in 10.0 mi SW 5.8 mph - N/A   Clear
9:53 PM 35.1 °F 32.2 °F 23.0 °F 61% 30.14 in 10.0 mi WSW 3.5 mph - N/A   Partly Cloudy
10:53 PM 34.0 °F 29.8 °F 21.9 °F 61% 30.14 in 10.0 mi SSW 4.6 mph - N/A   Partly Cloudy
11:53 PM 34.0 °F - 21.9 °F 61% 30.14 in 10.0 mi Calm Calm - N/A   Scattered Clouds